AC0YE Weather Reports


time (UTC)temp
C
wind
direction
speed
KPH
gust
KPH
rain 1hr
cm
rain 24hr
cm
rain mn
cm
humidity
%
barometer
mb
20260505152517 11 293 3.2 6.4 0.00 0.00 0.00 44 1010.9
20260505152017 11 315 3.2 9.7 0.00 0.00 0.00 45 1010.9
20260505151517 11 23 1.6 6.4 0.00 0.00 0.00 46 1011.0
20260505151017 11 0 3.2 6.4 0.00 0.00 0.00 44 1010.9
20260505150537 11 338 1.6 6.4 0.00 0.00 0.00 44 1010.9
20260505140517 10 45 3.2 9.7 0.00 0.00 0.00 48 1010.4
20260505125016 8 0.0 1.6 0.00 0.00 0.00 59 1011.2
20260505124517 8 0.0 1.6 0.00 0.00 0.00 58 1011.2
20260505124017 8 0.0 1.6 0.00 0.00 0.00 58 1011.1
20260505123516 8 293 1.6 4.8 0.00 0.00 0.00 59 1011.4
20260505123016 8 315 1.6 4.8 0.00 0.00 0.00 60 1011.4
20260505122516 7 0.0 3.2 0.00 0.00 0.00 63 1011.4
20260505122016 7 0.0 1.6 0.00 0.00 0.00 64 1011.4
20260505121517 7 0.0 1.6 0.00 0.00 0.00 65 1011.3
20260505121016 6 0.0 0.0 0.00 0.00 0.00 65 1011.2
20260505120516 6 0.0 0.0 0.00 0.00 0.00 66 1011.1
20260505120017 6 0.0 0.0 0.00 0.00 0.00 67 1011.1
20260505115516 6 0.0 0.0 0.00 0.00 0.00 68 1011.0
20260505115016 6 0.0 0.0 0.00 0.00 0.00 68 1010.9
20260505114517 6 0.0 0.0 0.00 0.00 0.00 68 1010.8
20260505114016 6 0.0 0.0 0.00 0.00 0.00 68 1010.7
20260505113517 6 0.0 0.0 0.00 0.00 0.00 66 1010.7
20260505113016 6 0.0 0.0 0.00 0.00 0.00 65 1010.5
20260505112517 6 0.0 0.0 0.00 0.00 0.00 65 1010.6
20260505112016 6 0.0 0.0 0.00 0.00 0.00 65 1010.4
20260505111517 6 0.0 0.0 0.00 0.00 0.00 64 1010.2
20260505111016 6 0.0 0.0 0.00 0.00 0.00 63 1010.0
20260505110536 6 0.0 0.0 0.00 0.00 0.00 62 1009.8
20260505102016 7 0 1.6 4.8 0.00 0.00 0.00 57 1008.1
20260505101536 7 0 3.2 6.4 0.00 0.00 0.00 57 1007.9
20260505101017 7 0 1.6 4.8 0.00 0.00 0.00 57 1007.9
20260505100516 7 23 1.6 3.2 0.00 0.00 0.00 57 1008.3
20260505100016 8 0.0 1.6 0.00 0.00 0.00 57 1008.6
20260505095516 8 0.0 0.0 0.00 0.00 0.00 56 1009.0
20260505095016 8 0.0 1.6 0.00 0.00 0.00 54 1009.6
20260505094516 8 0.0 1.6 0.00 0.00 0.00 54 1009.5
20260505094017 8 0.0 1.6 0.00 0.00 0.00 53 1009.5
20260505093516 8 0.0 1.6 0.00 0.00 0.00 53 1009.3
20260505093016 8 0 1.6 4.8 0.00 0.00 0.00 52 1009.1
20260505092536 8 45 1.6 4.8 0.00 0.00 0.00 53 1008.8
20260505092016 8 0.0 1.6 0.00 0.00 0.00 53 1009.3
20260505091516 8 0.0 1.6 0.00 0.00 0.00 53 1009.3
20260505091016 8 0.0 3.2 0.00 0.00 0.00 52 1009.0
20260505090516 8 23 1.6 3.2 0.00 0.00 0.00 51 1009.1
20260505090016 8 0.0 3.2 0.00 0.00 0.00 52 1009.0
20260505085516 9 0.0 3.2 0.00 0.00 0.00 52 1009.6
20260505085016 9 293 1.6 3.2 0.00 0.00 0.00 51 1009.6
20260505084516 9 293 1.6 9.7 0.00 0.00 0.00 51 1009.5
20260505084036 9 0.0 4.8 0.00 0.00 0.00 51 1009.4
20260505083556 9 315 1.6 8.0 0.00 0.00 0.00 51 1009.0
20260505083016 9 315 3.2 9.7 0.00 0.00 0.00 52 1008.8
20260505082536 9 0 3.2 12.9 0.00 0.00 0.00 50 1008.4
20260505082016 9 0 4.8 14.5 0.00 0.00 0.00 50 1007.6
20260505081516 9 338 3.2 9.7 0.00 0.00 0.00 51 1008.2
20260505081016 9 0 1.6 8.0 0.00 0.00 0.00 52 1008.1
20260505080516 9 338 3.2 8.0 0.00 0.00 0.00 53 1007.9
20260505080016 9 338 4.8 14.5 0.00 0.00 0.00 53 1007.9
20260505075516 9 338 6.4 14.5 0.00 0.00 0.00 53 1008.6
20260505075016 9 338 4.8 9.7 0.00 0.00 0.00 54 1008.8
20260505074516 9 338 4.8 11.3 0.00 0.00 0.00 54 1008.0
20260505074016 9 338 4.8 14.5 0.00 0.00 0.00 55 1007.6
20260505073516 9 338 6.4 12.9 0.00 0.00 0.00 57 1007.3
20260505073016 9 338 4.8 12.9 0.00 0.00 0.00 55 1007.9
20260505072516 9 315 4.8 9.7 0.00 0.00 0.00 57 1008.4
20260505072016 9 338 6.4 22.5 0.00 0.00 0.00 57 1007.8
20260505071516 9 338 6.4 12.9 0.00 0.00 0.00 59 1007.3
20260505071016 9 338 9.7 20.9 0.00 0.00 0.00 57 1007.3
20260505070516 10 338 8.0 17.7 0.00 0.00 0.00 51 1007.1
20260505070016 10 338 8.0 19.3 0.00 0.00 0.00 51 1007.4
20260505065516 10 338 8.0 24.1 0.00 0.00 0.00 53 1007.5
20260505065016 10 338 6.4 22.5 0.00 0.00 0.00 52 1007.3
20260505064516 10 315 6.4 19.3 0.00 0.00 0.00 52 1007.4
20260505064016 10 315 6.4 16.1 0.00 0.00 0.00 51 1006.9
20260505063516 10 315 8.0 20.9 0.00 0.00 0.00 51 1006.6
20260505063016 10 338 8.0 17.7 0.00 0.00 0.00 50 1006.4
20260505062516 10 315 8.0 19.3 0.00 0.00 0.00 50 1006.1
20260505062036 10 338 6.4 20.9 0.00 0.00 0.00 50 1005.9
20260505061516 10 315 9.7 22.5 0.00 0.00 0.00 49 1006.1
20260505061016 11 315 9.7 22.5 0.00 0.00 0.00 49 1006.2
20260505060536 11 338 9.7 22.5 0.00 0.00 0.00 49 1005.9
20260505060016 11 338 8.0 19.3 0.00 0.00 0.00 49 1006.0
20260505055516 11 0 9.7 27.4 0.00 0.00 0.00 49 1006.4
20260505055036 11 338 9.7 17.7 0.00 0.00 0.00 49 1006.7
20260505054516 11 315 8.0 19.3 0.00 0.00 0.00 49 1006.9
20260505054016 11 315 8.0 16.1 0.00 0.00 0.00 49 1006.9
20260505053516 11 315 8.0 16.1 0.00 0.00 0.00 49 1007.0
20260505053016 11 315 8.0 19.3 0.00 0.00 0.00 49 1006.9
20260505052516 11 338 6.4 12.9 0.00 0.00 0.00 50 1007.0
20260505052016 11 315 6.4 12.9 0.00 0.00 0.00 49 1007.1
20260505051516 11 315 6.4 12.9 0.00 0.00 0.00 49 1006.6
20260505051016 11 338 6.4 25.7 0.00 0.00 0.00 49 1006.0
20260505050516 11 338 4.8 11.3 0.00 0.00 0.00 50 1006.2
20260505041516 13 315 8.0 25.7 0.00 0.00 0.00 48 1006.4
20260505041016 13 338 11.3 20.9 0.00 0.00 0.00 48 1006.3
20260505040516 13 315 6.4 22.5 0.00 0.00 0.00 48 1006.1
20260505040016 13 338 4.8 16.1 0.00 0.00 0.00 47 1005.7
20260505035516 14 315 8.0 17.7 0.00 0.00 0.00 46 1005.5
20260505035016 14 315 8.0 17.7 0.00 0.00 0.00 45 1005.3
20260505034516 14 315 8.0 19.3 0.00 0.00 0.00 45 1005.1
20260505034016 14 315 9.7 25.7 0.00 0.00 0.00 45 1005.1
20260505033516 13 315 6.4 12.9 0.00 0.00 0.00 45 1005.2
20260505033016 13 315 4.8 12.9 0.00 0.00 0.00 45 1005.1
20260505032516 13 315 4.8 14.5 0.00 0.00 0.00 45 1005.1
20260505032016 13 315 4.8 16.1 0.00 0.00 0.00 45 1005.2
20260505031516 13 315 4.8 16.1 0.00 0.00 0.00 45 1005.2
20260505031016 13 315 4.8 16.1 0.00 0.00 0.00 45 1005.1
20260505030516 14 315 4.8 12.9 0.00 0.00 0.00 44 1005.1
20260505030056 14 315 4.8 12.9 0.00 0.00 0.00 44 1004.9
20260505025536 14 315 4.8 14.5 0.00 0.00 0.00 44 1004.6
20260505025016 14 315 4.8 12.9 0.00 0.00 0.00 43 1004.6
20260505024536 14 315 4.8 11.3 0.00 0.00 0.00 43 1004.6
20260505024016 15 315 4.8 11.3 0.00 0.00 0.00 43 1004.7
20260505023516 15 315 4.8 16.1 0.00 0.00 0.00 42 1004.5
20260505023016 15 315 6.4 16.1 0.00 0.00 0.00 42 1004.4
20260505022516 15 338 6.4 14.5 0.00 0.00 0.00 42 1004.4
20260505022036 15 315 6.4 14.5 0.00 0.00 0.00 42 1004.3
20260505021516 15 315 4.8 11.3 0.00 0.00 0.00 42 1004.1
20260505021036 15 315 4.8 11.3 0.00 0.00 0.00 42 1004.0
20260505020516 15 315 4.8 11.3 0.00 0.00 0.00 42 1003.8
20260505020016 15 315 4.8 14.5 0.00 0.00 0.00 42 1003.5
20260505015516 15 315 4.8 12.9 0.00 0.00 0.00 41 1003.4
20260505015016 15 315 4.8 16.1 0.00 0.00 0.00 41 1003.4
20260505014516 16 338 6.4 11.3 0.00 0.00 0.00 40 1003.1
20260505014016 16 315 6.4 12.9 0.00 0.00 0.00 40 1003.0
20260505013536 16 338 6.4 14.5 0.00 0.00 0.00 39 1002.7
20260505013016 16 315 6.4 16.1 0.00 0.00 0.00 39 1002.6
20260505012516 16 315 4.8 12.9 0.00 0.00 0.00 38 1002.4
20260505012016 16 338 6.4 12.9 0.00 0.00 0.00 37 1002.2
20260505011516 17 315 6.4 17.7 0.00 0.00 0.00 37 1002.1
20260505011016 17 315 8.0 17.7 0.00 0.00 0.00 36 1002.1
20260505010515 17 315 8.0 14.5 0.00 0.00 0.00 37 1001.9
20260505010016 17 338 6.4 14.5 0.00 0.00 0.00 36 1001.9
20260505005516 17 315 8.0 20.9 0.00 0.00 0.00 36 1001.8
20260505005016 18 315 8.0 27.4 0.00 0.00 0.00 35 1001.9
20260505004515 18 315 8.0 20.9 0.00 0.00 0.00 35 1001.6
20260505004016 18 315 11.3 27.4 0.00 0.00 0.00 35 1001.6
20260505003516 18 315 11.3 24.1 0.00 0.00 0.00 36 1001.4
20260505003016 19 338 8.0 20.9 0.00 0.00 0.00 35 1001.3
20260505002515 19 315 11.3 30.6 0.00 0.00 0.00 35 1001.2
20260505002055 20 338 9.7 22.5 0.00 0.00 0.00 35 1001.2
20260505001516 20 315 11.3 22.5 0.00 0.00 0.00 35 1001.1
20260505001036 20 315 11.3 22.5 0.00 0.00 0.00 35 1001.1
20260505000515 20 315 12.9 25.7 0.00 0.00 0.00 35 1000.9
20260505000016 21 315 14.5 25.7 0.00 0.00 0.00 35 1000.8
20260504235515 21 315 12.9 30.6 0.00 0.00 0.00 35 1000.5
20260504235015 21 315 12.9 29.0 0.00 0.00 0.00 34 1000.6
20260504234516 22 315 11.3 27.4 0.00 0.00 0.00 34 1000.5
20260504234015 22 315 9.7 25.7 0.00 0.00 0.00 34 1000.3
20260504233516 22 315 8.0 22.5 0.00 0.00 0.00 35 1000.4
20260504233015 22 315 9.7 19.3 0.00 0.00 0.00 34 1000.3
20260504232516 23 338 9.7 19.3 0.00 0.00 0.00 34 1000.3
20260504232016 23 315 9.7 24.1 0.00 0.00 0.00 33 1000.2
20260504231536 23 315 9.7 19.3 0.00 0.00 0.00 34 1000.3
20260504231036 23 315 8.0 16.1 0.00 0.00 0.00 35 1000.0
20260504230515 23 315 8.0 19.3 0.00 0.00 0.00 35 1000.0
20260504230015 23 315 9.7 19.3 0.00 0.00 0.00 34 1000.0
20260504225515 24 315 9.7 25.7 0.00 0.00 0.00 34 999.7
20260504225035 24 338 9.7 20.9 0.00 0.00 0.00 34 999.8
20260504224515 24 315 9.7 22.5 0.00 0.00 0.00 33 999.6
20260504224015 25 315 12.9 20.9 0.00 0.00 0.00 34 999.6
20260504223516 25 315 11.3 25.7 0.00 0.00 0.00 34 999.5
20260504223015 25 315 11.3 32.2 0.00 0.00 0.00 35 999.3
20260504222535 25 315 9.7 19.3 0.00 0.00 0.00 35 999.2
20260504222035 25 315 12.9 24.1 0.00 0.00 0.00 34 999.2
20260504221515 25 315 12.9 35.4 0.00 0.00 0.00 34 999.0
20260504221016 26 315 12.9 25.7 0.00 0.00 0.00 36 999.1
20260504220515 26 315 9.7 17.7 0.00 0.00 0.00 37 998.9
20260504220015 26 338 11.3 24.1 0.00 0.00 0.00 38 998.9
20260504215515 26 315 9.7 20.9 0.00 0.00 0.00 37 998.9
20260504215116 26 315 9.7 22.5 0.00 0.00 0.00 38 998.6
20260504214515 26 315 9.7 19.3 0.00 0.00 0.00 37 998.8
20260504214015 26 315 8.0 14.5 0.00 0.00 0.00 37 998.7
20260504213515 26 315 12.9 24.1 0.00 0.00 0.00 37 998.7
20260504213015 27 315 8.0 22.5 0.00 0.00 0.00 36 998.7
20260504212515 27 293 11.3 29.0 0.00 0.00 0.00 32 998.6
20260504212015 27 293 11.3 29.0 0.00 0.00 0.00 31 998.4
20260504211515 27 293 14.5 30.6 0.00 0.00 0.00 30 998.4
20260504211015 27 293 14.5 38.6 0.00 0.00 0.00 30 998.4
20260504210515 27 293 9.7 27.4 0.00 0.00 0.00 32 998.4
20260504210035 27 270 12.9 27.4 0.00 0.00 0.00 31 998.6
20260504205515 27 293 6.4 14.5 0.00 0.00 0.00 34 998.4
20260504205035 27 293 8.0 16.1 0.00 0.00 0.00 35 998.8
20260504204535 27 293 9.7 22.5 0.00 0.00 0.00 34 998.8
20260504204015 27 270 9.7 24.1 0.00 0.00 0.00 34 998.9
20260504203515 27 270 9.7 19.3 0.00 0.00 0.00 35 999.1
20260504203035 27 293 8.0 20.9 0.00 0.00 0.00 35 999.1
20260504202535 27 293 9.7 17.7 0.00 0.00 0.00 35 999.2
20260504202015 26 270 9.7 20.9 0.00 0.00 0.00 35 999.2
20260504201555 26 293 8.0 16.1 0.00 0.00 0.00 35 999.2
20260504201015 27 248 9.7 20.9 0.00 0.00 0.00 35 999.2
20260504200515 27 293 12.9 29.0 0.00 0.00 0.00 34 999.3
20260504200015 27 293 12.9 24.1 0.00 0.00 0.00 34 999.3
20260504195517 27 293 12.9 29.0 0.00 0.00 0.00 34 999.3
20260504195017 27 293 9.7 22.5 0.00 0.00 0.00 34 999.4
20260504194517 27 248 8.0 20.9 0.00 0.00 0.00 34 999.4
20260504194017 27 270 8.0 20.9 0.00 0.00 0.00 36 999.6
20260504193517 27 315 8.0 19.3 0.00 0.00 0.00 35 999.5
20260504193017 26 248 6.4 12.9 0.00 0.00 0.00 36 999.5
20260504192537 26 270 8.0 19.3 0.00 0.00 0.00 36 999.7
20260504192017 26 293 8.0 17.7 0.00 0.00 0.00 36 999.6
20260504191517 26 315 8.0 17.7 0.00 0.00 0.00 35 999.6
20260504191017 26 270 9.7 20.9 0.00 0.00 0.00 35 999.7
20260504190517 26 293 8.0 19.3 0.00 0.00 0.00 36 999.7
20260504190017 26 293 8.0 19.3 0.00 0.00 0.00 35 999.7
20260504185537 26 293 11.3 33.8 0.00 0.00 0.00 34 999.8
20260504185017 27 248 9.7 33.8 0.00 0.00 0.00 34 1000.0
20260504184517 26 225 8.0 17.7 0.00 0.00 0.00 36 999.9
20260504184017 26 248 9.7 20.9 0.00 0.00 0.00 34 999.8
20260504183537 26 293 9.7 19.3 0.00 0.00 0.00 35 999.9
20260504183017 26 270 9.7 20.9 0.00 0.00 0.00 34 1000.0
20260504182517 27 293 9.7 19.3 0.00 0.00 0.00 34 1000.1
20260504182017 27 248 9.7 17.7 0.00 0.00 0.00 34 1000.0
20260504181537 26 248 8.0 17.7 0.00 0.00 0.00 35 1000.1
20260504181017 27 248 11.3 29.0 0.00 0.00 0.00 33 1000.2
20260504180517 26 270 9.7 19.3 0.00 0.00 0.00 34 1000.3
20260504180017 26 248 6.4 12.9 0.00 0.00 0.00 35 1000.1
20260504175517 26 270 9.7 25.7 0.00 0.00 0.00 34 1000.2
20260504175015 26 270 8.0 17.7 0.00 0.00 0.00 38 1000.1
20260504174517 26 248 8.0 20.9 0.00 0.00 0.00 35 1000.1
20260504174017 26 293 9.7 24.1 0.00 0.00 0.00 37 1000.2
20260504173537 26 248 6.4 16.1 0.00 0.00 0.00 36 1000.1
20260504173017 26 248 8.0 22.5 0.00 0.00 0.00 37 1000.2
20260504172517 26 248 6.4 17.7 0.00 0.00 0.00 37 1000.1
20260504172017 26 248 8.0 14.5 0.00 0.00 0.00 38 1000.3
20260504171517 26 225 4.8 11.3 0.00 0.00 0.00 38 1000.2
20260504171017 26 248 6.4 12.9 0.00 0.00 0.00 40 1000.3
20260504170517 25 225 4.8 14.5 0.00 0.00 0.00 40 1000.5